Weather Roundup
Issued by NWS

Home | Current Version | Previous Version | Graphics & Text | Print | Product List | Glossary Off
Versions: 1 2 3 4 5 6 7 8 9 10 11 12 13 14 15 16 17 18 19 20 21 22 23 24 25 26 27 28 29 30 31 32 33 34 35 36 37 38 39 40 41 42 43 44 45 46 47 48 49 50

817
NZUS93 KARX 262059
HRRWXR

CURRENT HOURLY OBSERVATIONS ACROSS
MUCH OF THE UPPER MISSISSIPPI VALLEY
NATIONAL WEATHER SERVICE LA CROSSE WI
400 PM CDT FRI MAY 26 2017


...SOUTHEAST MINNESOTA...


CITY           SKY/WX    TMP DP  RH WIND       PRES   REMARKS
ROCHESTER      SUNNY     72  57  59 S12       29.78F
ROCHESTER/MAYO FAIR      73  54  50 SE7       29.78S
WINONA         MOSUNNY   73  57  56 S3        29.78S
AUSTIN         PTSUNNY   73  57  56 S5        29.77S
ALBERT LEA     MOSUNNY   75  59  57 SW6       29.76F
DODGE CENTER   PTSUNNY   73  55  53 S9        29.78R
PRESTON        PTSUNNY   69  55  61 S9        29.80S
OWATONNA       SUNNY     77  55  47 S9        29.75F
FARIBAULT      MOSUNNY   79  57  47 SW5       29.75S
$$

...ELSEWHERE IN MINNESOTA...


CITY           SKY/WX    TMP DP  RH WIND       PRES   REMARKS
MINNEAPOLIS    PTSUNNY   78  54  43 SW8       29.72F
INTNL FALLS    PTSUNNY   74  43  32 W13G21    29.62S
DULUTH         MOSUNNY   65  53  65 SE13      29.70S
RED WING       PTSUNNY   75  54  46 S7        29.74S
REDWOOD FALLS  MOSUNNY   75  47  36 W12       29.75S
MANKATO        SUNNY     78  51  38 W10       29.75R
WORTHINGTON    SUNNY     74  47  38 W14G24    29.80S
FAIRMONT       MOSUNNY   78  51  38 W10G18    29.76S
$$

...SOUTHWEST WISCONSIN...


CITY           SKY/WX    TMP DP  RH WIND       PRES   REMARKS
LA CROSSE      MOSUNNY   72  57  59 S12       29.79S
PRAIRIE DU CHI CLOUDY    66  56  68 E6        29.81S
BOSCOBEL       CLOUDY    68  57  68 VRB6      29.82F
LONE ROCK      NOT AVBL
PLATTEVILLE    CLOUDY    63  61  95 E8        29.82F
FORT MC COY    PTSUNNY   70  55  58 S12G17    29.81S
MAUSTON-NEW LI MOCLDY    69  55  59 S8        29.80F
VIROQUA        CLOUDY    67  55  64 SW10      29.82S
WIS DELLS      CLOUDY    64  55  73 SW9       29.84R
$$

...ELSEWHERE IN WISCONSIN...


CITY           SKY/WX    TMP DP  RH WIND       PRES   REMARKS
MILWAUKEE      LGT RAIN  61  54  77 SE6       29.86S
MADISON        LGT RAIN  62  60  93 CALM      29.82S FOG
GREEN BAY      MOSUNNY   69  59  70 S12       29.83S
EAU CLAIRE     NOT AVBL
BLACK RVR FLS  CLOUDY    72  51  47 S10       29.79S
MEDFORD        CLOUDY    69  56  63 S10       29.79F
WAUSAU         CLOUDY    70  55  59 S9        29.79F
WIS RAPIDS     CLOUDY    73  54  51 SW12      29.81F
MARSHFIELD     PTSUNNY   72  51  47 S10G22    29.79S
RICE LAKE      PTSUNNY   72  53  51 S13       29.76F
$$

...NORTHEAST IOWA...


CITY           SKY/WX    TMP DP  RH WIND       PRES   REMARKS
WATERLOO       MOSUNNY   71  59  65 VRB7      29.78S
DUBUQUE        CLOUDY    64  60  87 NE9       29.80F
DECORAH        MOSUNNY   68  57  68 VRB7G13   29.80S
MASON CITY     MOSUNNY   76  55  48 CALM      29.79S
CHARLES CITY   SUNNY     72  59  64 E8        29.79S
OELWEIN        MOSUNNY   68  59  73 SE12      29.80F
$$

...ELSEWHERE IN IOWA...


CITY           SKY/WX    TMP DP  RH WIND       PRES   REMARKS
DES MOINES     MOSUNNY   81  58  45 N7        29.75S
IOWA CITY      CLOUDY    68  60  75 N3        29.79R
FORT DODGE     MOSUNNY   79  59  50 W6        29.78S
MARSHALLTOWN   SUNNY     75  59  57 CALM      29.77R
CEDAR RAPIDS   CLOUDY    65  62  90 E7        29.78S
$$

...NORTHERN ILLINOIS...


CITY           SKY/WX    TMP DP  RH WIND       PRES   REMARKS
CHICAGO-OHARE  RAIN      64  54  69 E12       29.80F
CHICAGO-MIDWAY LGT RAIN  65  54  67 E12       29.79F
MOLINE         CLOUDY    70  61  73 CALM      29.75F
ROCKFORD       LGT RAIN  63  61  93 NE13      29.81F FOG
PEORIA         LGT RAIN  65  64  97 CALM      29.76F
$$

NOTE: "FAIR" INDICATES FEW OR NO CLOUDS BELOW 12,000 FEET WITH NO
SIGNIFICANT WEATHER AND/OR OBSTRUCTIONS TO VISIBILITY. WIND
SPEEDS ARE IN MILES-PER-HOUR.




USA.gov is the U.S. government's official web portal to all federal, state and local government web resources and services.